PAL2834 RPVM-RPLC

Flight info

Callsign PAL2834
Flight time 1h 12m
Altitude 38000
Route MULOP4P MULOP W11 MIA W16 OLIVA OLIVA5R
Aircraft A321/M-SDE3FGHIRWY/LB1

Departure

Time 2026-05-07 18:41
Airport Mactan Cebu International Airport (RPVM)

Arrival

Time 2026-05-07 19:54
Airport Clark International Airport / Clark Air Base (RPLC)
Time Latitude Longitude Altitude Speed Heading
2026-05-07 18:21 10.31506 123.97927 37 ft 0 kts 315°
2026-05-07 18:23 10.31498 123.97935 38 ft 2 kts 315°
2026-05-07 18:23 10.31488 123.97946 38 ft 2 kts 315°
2026-05-07 18:23 10.31477 123.97957 38 ft 2 kts 315°
2026-05-07 18:24 10.31466 123.97968 37 ft 2 kts 315°
2026-05-07 18:24 10.31456 123.97979 37 ft 1 kts 315°
2026-05-07 18:24 10.31451 123.97983 37 ft 0 kts 286°
2026-05-07 18:24 10.31451 123.97990 37 ft 0 kts 232°
2026-05-07 18:25 10.31455 123.97993 37 ft 1 kts 223°
2026-05-07 18:25 10.31457 123.97995 37 ft 0 kts 225°
2026-05-07 18:31 10.31456 123.97993 37 ft 2 kts 225°
2026-05-07 18:31 10.31423 123.97961 37 ft 8 kts 225°
2026-05-07 18:32 10.31381 123.97916 37 ft 9 kts 225°
2026-05-07 18:32 10.31369 123.97904 37 ft 1 kts 225°
2026-05-07 18:32 10.31348 123.97899 37 ft 7 kts 169°
2026-05-07 18:32 10.31298 123.97920 37 ft 8 kts 141°
2026-05-07 18:33 10.31259 123.97965 37 ft 7 kts 131°
2026-05-07 18:33 10.31217 123.97990 37 ft 7 kts 197°
2026-05-07 18:33 10.31165 123.97944 37 ft 12 kts 226°
2026-05-07 18:33 10.31121 123.97898 37 ft 13 kts 225°
2026-05-07 18:34 10.31064 123.97842 37 ft 13 kts 223°
2026-05-07 18:34 10.30993 123.97773 37 ft 14 kts 225°
2026-05-07 18:34 10.30921 123.97701 37 ft 14 kts 225°
2026-05-07 18:34 10.30847 123.97625 37 ft 15 kts 224°
2026-05-07 18:35 10.30771 123.97549 37 ft 15 kts 225°
2026-05-07 18:35 10.30694 123.97472 37 ft 15 kts 224°
2026-05-07 18:35 10.30615 123.97394 37 ft 15 kts 224°
2026-05-07 18:35 10.30537 123.97315 37 ft 13 kts 224°
2026-05-07 18:36 10.30520 123.97299 37 ft 1 kts 225°
2026-05-07 18:36 10.30512 123.97291 37 ft 2 kts 225°
2026-05-07 18:36 10.30488 123.97266 37 ft 8 kts 225°
2026-05-07 18:36 10.30443 123.97221 37 ft 9 kts 225°
2026-05-07 18:37 10.30388 123.97164 37 ft 14 kts 225°
2026-05-07 18:37 10.30317 123.97092 37 ft 14 kts 225°
2026-05-07 18:37 10.30243 123.97019 37 ft 15 kts 224°
2026-05-07 18:37 10.30167 123.96944 37 ft 15 kts 224°
2026-05-07 18:38 10.30090 123.96868 37 ft 15 kts 225°
2026-05-07 18:38 10.30011 123.96788 37 ft 15 kts 225°
2026-05-07 18:38 10.29937 123.96714 37 ft 12 kts 223°
2026-05-07 18:38 10.29884 123.96708 37 ft 8 kts 149°
2026-05-07 18:39 10.29839 123.96750 37 ft 9 kts 134°
2026-05-07 18:39 10.29792 123.96799 37 ft 10 kts 134°
2026-05-07 18:39 10.29740 123.96854 37 ft 9 kts 133°
2026-05-07 18:39 10.29721 123.96891 37 ft 6 kts 82°
2026-05-07 18:40 10.29742 123.96925 37 ft 4 kts 45°
2026-05-07 18:40 10.29769 123.96952 37 ft 5 kts 45°
2026-05-07 18:40 10.29865 123.97050 37 ft 51 kts 45°
2026-05-07 18:40 10.30310 123.97495 37 ft 124 kts 45°
2026-05-07 18:41 10.31052 123.98246 167 ft 169 kts 45°
2026-05-07 18:41 10.31887 123.99085 847 ft 169 kts 46°
2026-05-07 18:41 10.32687 123.99886 1730 ft 161 kts 48°
2026-05-07 18:41 10.33468 124.00674 2256 ft 162 kts 49°
2026-05-07 18:42 10.34411 124.01408 2507 ft 183 kts 25°
2026-05-07 18:42 10.35770 124.01349 2769 ft 212 kts 348°
2026-05-07 18:42 10.37213 124.00821 3106 ft 225 kts 347°
2026-05-07 18:42 10.38758 124.00314 3342 ft 245 kts 348°
2026-05-07 18:43 10.40446 123.99796 3730 ft 259 kts 348°
2026-05-07 18:43 10.42197 123.99266 4345 ft 263 kts 348°
2026-05-07 18:43 10.43961 123.98737 4875 ft 272 kts 348°
2026-05-07 18:43 10.45816 123.98186 5422 ft 281 kts 348°
2026-05-07 18:44 10.47697 123.97629 6135 ft 284 kts 347°
2026-05-07 18:44 10.49615 123.97060 6872 ft 287 kts 347°
2026-05-07 18:44 10.51541 123.96489 7596 ft 290 kts 347°
2026-05-07 18:44 10.53482 123.95915 8313 ft 293 kts 347°
2026-05-07 18:45 10.55435 123.95335 9010 ft 296 kts 347°
2026-05-07 18:45 10.57433 123.94745 9695 ft 298 kts 347°
2026-05-07 18:45 10.59420 123.94157 10325 ft 302 kts 347°
2026-05-07 18:45 10.61481 123.93550 10686 ft 316 kts 347°
2026-05-07 18:46 10.63640 123.92862 11191 ft 325 kts 341°
2026-05-07 18:46 10.65613 123.91705 11797 ft 333 kts 325°
2026-05-07 18:46 10.67265 123.90067 12407 ft 338 kts 314°
2026-05-07 18:46 10.68809 123.88241 12992 ft 341 kts 313°
2026-05-07 18:47 10.70342 123.86384 13553 ft 344 kts 313°
2026-05-07 18:47 10.71881 123.84530 14098 ft 347 kts 313°
2026-05-07 18:47 10.73438 123.82667 14643 ft 349 kts 313°
2026-05-07 18:47 10.75023 123.80788 15189 ft 351 kts 313°
2026-05-07 18:48 10.76630 123.78885 15722 ft 353 kts 313°
2026-05-07 18:48 10.78234 123.76989 16239 ft 355 kts 313°
2026-05-07 18:48 10.79830 123.75105 16739 ft 357 kts 313°
2026-05-07 18:48 10.81464 123.73175 17235 ft 359 kts 313°
2026-05-07 18:49 10.83111 123.71231 17712 ft 362 kts 313°
2026-05-07 18:49 10.84744 123.69304 18160 ft 365 kts 313°
2026-05-07 18:49 10.86406 123.67341 18600 ft 368 kts 313°
2026-05-07 18:49 10.88078 123.65365 19044 ft 370 kts 313°
2026-05-07 18:50 10.89760 123.63377 19481 ft 373 kts 313°
2026-05-07 18:50 10.91453 123.61372 19908 ft 375 kts 313°
2026-05-07 18:50 10.93162 123.59347 20321 ft 378 kts 313°
2026-05-07 18:50 10.94871 123.57324 20730 ft 380 kts 313°
2026-05-07 18:51 10.96596 123.55283 21131 ft 382 kts 313°
2026-05-07 18:51 10.98348 123.53214 21524 ft 384 kts 314°
2026-05-07 18:51 11.00203 123.51283 21897 ft 385 kts 319°
2026-05-07 18:51 11.02262 123.49525 22275 ft 385 kts 325°
2026-05-07 18:52 11.04439 123.47951 22660 ft 387 kts 327°
2026-05-07 18:52 11.06687 123.46388 23042 ft 388 kts 327°
2026-05-07 18:52 11.08926 123.44840 23417 ft 390 kts 327°
2026-05-07 18:52 11.11181 123.43278 23800 ft 392 kts 327°
2026-05-07 18:53 11.13446 123.41704 24171 ft 394 kts 327°
2026-05-07 18:53 11.15710 123.40127 24532 ft 396 kts 327°
2026-05-07 18:53 11.17982 123.38542 24886 ft 398 kts 326°
2026-05-07 18:53 11.20262 123.36949 25226 ft 400 kts 326°
2026-05-07 18:54 11.22577 123.35331 25568 ft 402 kts 326°
2026-05-07 18:54 11.24896 123.33710 25902 ft 404 kts 326°
2026-05-07 18:54 11.27234 123.32075 26229 ft 406 kts 326°
2026-05-07 18:54 11.29576 123.30437 26555 ft 409 kts 326°
2026-05-07 18:55 11.31918 123.28798 26882 ft 410 kts 325°
2026-05-07 18:55 11.34277 123.27147 27214 ft 412 kts 325°
2026-05-07 18:55 11.36635 123.25496 27534 ft 414 kts 325°
2026-05-07 18:55 11.39004 123.23837 27857 ft 416 kts 325°
2026-05-07 18:56 11.41407 123.22155 28176 ft 417 kts 325°
2026-05-07 18:56 11.43806 123.20474 28488 ft 419 kts 325°
2026-05-07 18:56 11.46217 123.18784 28795 ft 421 kts 324°
2026-05-07 18:56 11.48630 123.17094 29088 ft 422 kts 324°
2026-05-07 18:57 11.51069 123.15384 29379 ft 424 kts 324°
2026-05-07 18:57 11.53492 123.13686 29655 ft 426 kts 324°
2026-05-07 18:57 11.55948 123.11964 29935 ft 428 kts 324°
2026-05-07 18:57 11.58404 123.10242 30209 ft 430 kts 324°
2026-05-07 18:58 11.60876 123.08507 30488 ft 431 kts 324°
2026-05-07 18:58 11.63340 123.06780 30764 ft 432 kts 324°
2026-05-07 18:58 11.65830 123.05032 31034 ft 434 kts 324°
2026-05-07 18:58 11.68324 123.03281 31295 ft 435 kts 324°
2026-05-07 18:59 11.70829 123.01520 31551 ft 437 kts 324°
2026-05-07 18:59 11.73333 122.99764 31791 ft 438 kts 323°
2026-05-07 18:59 11.75841 122.98001 32025 ft 440 kts 323°
2026-05-07 18:59 11.78381 122.96217 32264 ft 442 kts 323°
2026-05-07 19:00 11.80902 122.94444 32504 ft 443 kts 323°
2026-05-07 19:00 11.83439 122.92661 32766 ft 445 kts 323°
2026-05-07 19:00 11.86017 122.90848 33033 ft 446 kts 323°
2026-05-07 19:00 11.88573 122.89050 33300 ft 447 kts 323°
2026-05-07 19:01 11.91122 122.87255 33634 ft 447 kts 323°
2026-05-07 19:01 11.93686 122.85452 34054 ft 445 kts 323°
2026-05-07 19:01 11.96205 122.83678 34488 ft 443 kts 323°
2026-05-07 19:01 11.98756 122.81883 34917 ft 440 kts 323°
2026-05-07 19:02 12.01258 122.80122 35302 ft 438 kts 323°
2026-05-07 19:02 12.03760 122.78360 35643 ft 437 kts 323°
2026-05-07 19:02 12.06282 122.76583 35944 ft 437 kts 323°
2026-05-07 19:02 12.08780 122.74823 36208 ft 437 kts 323°
2026-05-07 19:03 12.11273 122.73066 36427 ft 438 kts 323°
2026-05-07 19:03 12.13805 122.71280 36622 ft 439 kts 323°
2026-05-07 19:03 12.16322 122.69504 36812 ft 440 kts 323°
2026-05-07 19:03 12.18817 122.67744 37008 ft 440 kts 323°
2026-05-07 19:04 12.21374 122.65939 37220 ft 441 kts 323°
2026-05-07 19:04 12.23899 122.64156 37425 ft 441 kts 323°
2026-05-07 19:04 12.26397 122.62392 37629 ft 441 kts 323°
2026-05-07 19:04 12.28946 122.60591 37812 ft 441 kts 323°
2026-05-07 19:05 12.31449 122.58823 37838 ft 442 kts 323°
2026-05-07 19:05 12.36541 122.55223 37845 ft 443 kts 323°
2026-05-07 19:06 12.41603 122.51653 37845 ft 444 kts 323°
2026-05-07 19:06 12.49249 122.46255 37845 ft 444 kts 323°
2026-05-07 19:07 12.54302 122.42680 37844 ft 444 kts 323°
2026-05-07 19:07 12.59415 122.39061 37846 ft 444 kts 323°
2026-05-07 19:08 12.64500 122.35459 37847 ft 444 kts 323°
2026-05-07 19:08 12.69574 122.31865 37843 ft 443 kts 322°
2026-05-07 19:09 12.74636 122.28275 37843 ft 444 kts 322°
2026-05-07 19:09 12.79740 122.24655 37846 ft 444 kts 322°
2026-05-07 19:10 12.84812 122.21056 37851 ft 445 kts 322°
2026-05-07 19:10 12.89924 122.17425 37855 ft 445 kts 322°
2026-05-07 19:11 12.95018 122.13805 37860 ft 445 kts 322°
2026-05-07 19:11 13.00091 122.10201 37862 ft 446 kts 322°
2026-05-07 19:12 13.05199 122.06569 37872 ft 445 kts 322°
2026-05-07 19:12 13.10265 122.02964 37886 ft 444 kts 322°
2026-05-07 19:13 13.15386 121.99317 37905 ft 445 kts 322°
2026-05-07 19:13 13.20484 121.95684 37917 ft 446 kts 322°
2026-05-07 19:14 13.25560 121.92067 37923 ft 447 kts 322°
2026-05-07 19:14 13.30665 121.88428 37911 ft 447 kts 322°
2026-05-07 19:15 13.35772 121.84784 37891 ft 447 kts 322°
2026-05-07 19:15 13.40880 121.81137 37730 ft 448 kts 322°
2026-05-07 19:16 13.43446 121.79305 37439 ft 445 kts 323°
2026-05-07 19:16 13.46005 121.77478 37150 ft 443 kts 322°
2026-05-07 19:16 13.48495 121.75697 36844 ft 440 kts 323°
2026-05-07 19:16 13.50995 121.73909 36441 ft 438 kts 323°
2026-05-07 19:17 13.53523 121.72102 35893 ft 438 kts 323°
2026-05-07 19:17 13.56004 121.70326 35217 ft 439 kts 323°
2026-05-07 19:17 13.58516 121.68527 34503 ft 439 kts 323°
2026-05-07 19:17 13.61001 121.66750 33833 ft 439 kts 323°
2026-05-07 19:18 13.63520 121.64945 33191 ft 442 kts 323°
2026-05-07 19:18 13.66045 121.63135 32620 ft 439 kts 324°
2026-05-07 19:18 13.68555 121.61339 32230 ft 437 kts 324°
2026-05-07 19:18 13.71040 121.59563 31807 ft 434 kts 324°
2026-05-07 19:19 13.73494 121.57807 31380 ft 430 kts 324°
2026-05-07 19:19 13.75952 121.56049 30950 ft 427 kts 324°
2026-05-07 19:19 13.78356 121.54324 30514 ft 424 kts 324°
2026-05-07 19:19 13.80764 121.52599 30077 ft 420 kts 324°
2026-05-07 19:20 13.83146 121.50891 29629 ft 417 kts 325°
2026-05-07 19:20 13.85537 121.49177 29172 ft 413 kts 325°
2026-05-07 19:20 13.87893 121.47487 28740 ft 409 kts 325°
2026-05-07 19:20 13.90196 121.45834 28302 ft 406 kts 325°
2026-05-07 19:21 13.92520 121.44167 27853 ft 402 kts 325°
2026-05-07 19:21 13.94807 121.42523 27384 ft 399 kts 325°
2026-05-07 19:21 13.97072 121.40896 26926 ft 396 kts 325°
2026-05-07 19:21 13.99338 121.39269 26456 ft 393 kts 326°
2026-05-07 19:22 14.01576 121.37659 25997 ft 391 kts 326°
2026-05-07 19:22 14.03780 121.36074 25537 ft 388 kts 326°
2026-05-07 19:22 14.06000 121.34478 25066 ft 386 kts 326°
2026-05-07 19:22 14.08180 121.32911 24604 ft 383 kts 326°
2026-05-07 19:23 14.10349 121.31351 24139 ft 381 kts 326°
2026-05-07 19:23 14.12533 121.29783 23668 ft 379 kts 326°
2026-05-07 19:23 14.14690 121.28231 23201 ft 378 kts 326°
2026-05-07 19:23 14.16854 121.26672 22728 ft 377 kts 326°
2026-05-07 19:24 14.19003 121.25125 22265 ft 376 kts 326°
2026-05-07 19:24 14.21131 121.23593 21816 ft 374 kts 326°
2026-05-07 19:24 14.23255 121.22063 21370 ft 373 kts 326°
2026-05-07 19:24 14.25383 121.20531 20925 ft 372 kts 326°
2026-05-07 19:25 14.27508 121.19001 20485 ft 370 kts 326°
2026-05-07 19:25 14.29603 121.17492 20045 ft 369 kts 326°
2026-05-07 19:25 14.31701 121.15980 19610 ft 368 kts 326°
2026-05-07 19:25 14.33798 121.14468 19147 ft 367 kts 326°
2026-05-07 19:26 14.35901 121.12950 18723 ft 365 kts 326°
2026-05-07 19:26 14.37981 121.11448 18265 ft 364 kts 326°
2026-05-07 19:26 14.40056 121.09950 17784 ft 363 kts 326°
2026-05-07 19:26 14.42096 121.08477 17382 ft 361 kts 326°
2026-05-07 19:27 14.44171 121.06979 16943 ft 360 kts 326°
2026-05-07 19:27 14.46198 121.05516 16491 ft 359 kts 326°
2026-05-07 19:27 14.48255 121.04031 16036 ft 358 kts 326°
2026-05-07 19:27 14.50318 121.02541 15577 ft 358 kts 326°
2026-05-07 19:28 14.52377 121.01093 15125 ft 357 kts 327°
2026-05-07 19:28 14.54447 120.99696 14682 ft 356 kts 328°
2026-05-07 19:28 14.56522 120.98304 14243 ft 354 kts 328°
2026-05-07 19:28 14.58585 120.96917 13811 ft 353 kts 328°
2026-05-07 19:29 14.60632 120.95537 13371 ft 352 kts 327°
2026-05-07 19:29 14.62692 120.94142 12970 ft 351 kts 327°
2026-05-07 19:29 14.64731 120.92760 12486 ft 352 kts 327°
2026-05-07 19:29 14.66763 120.91380 12014 ft 352 kts 328°
2026-05-07 19:30 14.68826 120.89980 11526 ft 352 kts 328°
2026-05-07 19:30 14.70880 120.88586 11038 ft 351 kts 328°
2026-05-07 19:30 14.72919 120.87204 10569 ft 351 kts 328°
2026-05-07 19:30 14.74964 120.85818 10132 ft 348 kts 328°
2026-05-07 19:31 14.76945 120.84473 9924 ft 339 kts 328°
2026-05-07 19:31 14.78919 120.83134 9662 ft 332 kts 329°
2026-05-07 19:31 14.80819 120.81845 9353 ft 327 kts 329°
2026-05-07 19:31 14.82713 120.80559 9053 ft 323 kts 329°
2026-05-07 19:32 14.84602 120.79277 8752 ft 318 kts 329°
2026-05-07 19:32 14.86446 120.78023 8464 ft 313 kts 329°
2026-05-07 19:32 14.88263 120.76790 8175 ft 309 kts 329°
2026-05-07 19:32 14.90041 120.75581 7891 ft 304 kts 329°
2026-05-07 19:33 14.91791 120.74392 7616 ft 300 kts 329°
2026-05-07 19:33 14.93545 120.73193 7346 ft 296 kts 327°
2026-05-07 19:33 14.94971 120.71679 7022 ft 298 kts 300°
2026-05-07 19:33 14.95521 120.69661 6743 ft 296 kts 278°
2026-05-07 19:34 14.95761 120.67530 6430 ft 294 kts 278°
2026-05-07 19:34 14.96015 120.65447 6133 ft 291 kts 279°
2026-05-07 19:34 14.96291 120.63416 5756 ft 283 kts 279°
2026-05-07 19:34 14.96579 120.61430 5366 ft 274 kts 280°
2026-05-07 19:35 14.97012 120.59567 4985 ft 263 kts 298°
2026-05-07 19:35 14.98054 120.58063 4623 ft 251 kts 315°
2026-05-07 19:35 14.99215 120.56768 4372 ft 237 kts 316°
2026-05-07 19:35 15.00313 120.55555 4062 ft 226 kts 316°
2026-05-07 19:36 15.01360 120.54382 3759 ft 223 kts 315°
2026-05-07 19:36 15.02398 120.53203 3492 ft 216 kts 315°
2026-05-07 19:36 15.03375 120.52076 3259 ft 202 kts 315°
2026-05-07 19:36 15.04398 120.51144 3009 ft 188 kts 338°
2026-05-07 19:37 15.05589 120.51022 2936 ft 161 kts 16°
2026-05-07 19:37 15.06610 120.51390 2939 ft 153 kts 25°
2026-05-07 19:37 15.07588 120.51809 2873 ft 154 kts 26°
2026-05-07 19:37 15.08582 120.52230 2601 ft 152 kts 25°
2026-05-07 19:38 15.09553 120.52632 2363 ft 151 kts 25°
2026-05-07 19:38 15.10536 120.53037 2120 ft 150 kts 24°
2026-05-07 19:38 15.11510 120.53432 1875 ft 150 kts 23°
2026-05-07 19:38 15.12486 120.53820 1649 ft 149 kts 22°
2026-05-07 19:39 15.13453 120.54203 1429 ft 149 kts 22°
2026-05-07 19:39 15.14412 120.54583 1213 ft 148 kts 21°
2026-05-07 19:39 15.15356 120.54957 999 ft 148 kts 21°
2026-05-07 19:39 15.16301 120.55335 778 ft 148 kts 22°
2026-05-07 19:40 15.17253 120.55716 592 ft 148 kts 15°
2026-05-07 19:40 15.18214 120.56097 495 ft 141 kts 21°
2026-05-07 19:40 15.19211 120.56518 920 ft 170 kts 24°
2026-05-07 19:40 15.20286 120.56996 1870 ft 172 kts 23°
2026-05-07 19:41 15.21362 120.57400 2935 ft 171 kts 23°
2026-05-07 19:41 15.22413 120.57936 3467 ft 174 kts 46°
2026-05-07 19:41 15.23003 120.59076 3770 ft 193 kts 81°
2026-05-07 19:41 15.22846 120.60503 4196 ft 213 kts 112°
2026-05-07 19:42 15.21825 120.61689 4773 ft 230 kts 149°
2026-05-07 19:42 15.20263 120.62010 5420 ft 241 kts 186°
2026-05-07 19:42 15.18724 120.61272 5830 ft 249 kts 223°
2026-05-07 19:42 15.17876 120.59735 5967 ft 252 kts 260°
2026-05-07 19:43 15.17949 120.57958 5980 ft 249 kts 284°
2026-05-07 19:43 15.18361 120.56196 5977 ft 249 kts 285°
2026-05-07 19:43 15.18949 120.54549 5956 ft 246 kts 307°
2026-05-07 19:43 15.20200 120.53389 5962 ft 239 kts 339°
2026-05-07 19:44 15.21794 120.53080 5968 ft 231 kts 10°
2026-05-07 19:44 15.23259 120.53680 5970 ft 225 kts 42°
2026-05-07 19:44 15.24139 120.54971 5972 ft 222 kts 73°
2026-05-07 19:44 15.24183 120.56556 5973 ft 225 kts 105°
2026-05-07 19:45 15.23370 120.57930 5975 ft 231 kts 136°
2026-05-07 19:45 15.21911 120.58675 5972 ft 238 kts 168°
2026-05-07 19:45 15.20251 120.58529 5973 ft 244 kts 198°
2026-05-07 19:45 15.18747 120.57681 5978 ft 247 kts 212°
2026-05-07 19:46 15.17296 120.56735 5966 ft 245 kts 199°
2026-05-07 19:46 15.15651 120.56373 5976 ft 241 kts 182°
2026-05-07 19:46 15.13970 120.56270 5969 ft 240 kts 179°
2026-05-07 19:46 15.12300 120.56212 5968 ft 240 kts 178°
2026-05-07 19:47 15.10623 120.56162 5849 ft 236 kts 178°
2026-05-07 19:47 15.08988 120.56113 5537 ft 238 kts 178°
2026-05-07 19:47 15.07324 120.56066 5245 ft 237 kts 178°
2026-05-07 19:47 15.05665 120.56019 4974 ft 236 kts 178°
2026-05-07 19:48 15.04029 120.55973 4702 ft 236 kts 178°
2026-05-07 19:48 15.02371 120.55901 4429 ft 236 kts 185°
2026-05-07 19:48 15.00863 120.55231 4064 ft 245 kts 222°
2026-05-07 19:48 15.00035 120.53719 3646 ft 253 kts 261°
2026-05-07 19:49 15.00281 120.51961 3391 ft 246 kts 302°
2026-05-07 19:49 15.01473 120.50792 3232 ft 231 kts 340°
2026-05-07 19:49 15.02994 120.50409 3119 ft 218 kts 359°
2026-05-07 19:49 15.04463 120.50440 3045 ft 206 kts 11°
2026-05-07 19:50 15.05788 120.50805 3044 ft 185 kts 24°
2026-05-07 19:50 15.06902 120.51344 2962 ft 169 kts 29°
2026-05-07 19:50 15.07902 120.51852 2926 ft 155 kts 29°
2026-05-07 19:50 15.08878 120.52370 2526 ft 164 kts 31°
2026-05-07 19:51 15.09930 120.52867 2217 ft 162 kts 22°
2026-05-07 19:51 15.10963 120.53234 1978 ft 151 kts 21°
2026-05-07 19:51 15.11268 120.53343 1912 ft 150 kts 21°
2026-05-07 19:51 15.11661 120.53487 1829 ft 149 kts 22°
2026-05-07 19:52 15.12637 120.53866 1621 ft 149 kts 22°
2026-05-07 19:52 15.13595 120.54250 1409 ft 148 kts 22°
2026-05-07 19:52 15.14554 120.54635 1188 ft 148 kts 22°
2026-05-07 19:52 15.15505 120.55014 967 ft 147 kts 21°
2026-05-07 19:53 15.16455 120.55393 749 ft 146 kts 21°
2026-05-07 19:53 15.17414 120.55778 541 ft 146 kts 20°
2026-05-07 19:53 15.18342 120.56148 472 ft 136 kts 20°
2026-05-07 19:53 15.19089 120.56437 472 ft 89 kts 22°
2026-05-07 19:54 15.19509 120.56604 472 ft 39 kts 20°
2026-05-07 19:54 15.19703 120.56682 472 ft 27 kts 21°
2026-05-07 19:54 15.19877 120.56750 472 ft 25 kts 22°
2026-05-07 19:54 15.20026 120.56808 472 ft 21 kts 20°
2026-05-07 19:55 15.20122 120.56827 472 ft 11 kts 333°
2026-05-07 19:55 15.20159 120.56757 472 ft 11 kts 282°
2026-05-07 19:55 15.20157 120.56693 472 ft 8 kts 259°